{"data":{"norad_id":42818,"epoch":"2026-09-20T03:04:14.054880Z","epoch_age_seconds":43290,"freshness":"FRESH","line1":"1 42818U 17041A   26263.12794045 -.00000242  00000+0  00000+0 0  9994","line2":"2 42818   0.0150 127.8369 0002137  53.0815 189.6751  1.00271024 33765","mean_motion":1.00271024,"eccentricity":0.0002137,"inclination_deg":0.015,"raan_deg":127.8369,"arg_perigee_deg":53.0815,"mean_anomaly_deg":189.6751,"bstar":0,"rev_number":3376,"period_min":1436.1078031875,"perigee_km":35777.797649655,"apogee_km":35795.818947275,"semimajor_km":42164.945298465,"source":"CELESTRAK","updated_at":"2026-09-20T09:00:35.523329Z"}}